Location: Battersea Observatory
(44.4318°N, 76.3841°W)
Time: 22:25:32
(UTC-05:00)

A-11 Canister half - Visible Passes

Search period start: 22 January 2022 00:00
Search period end: 01 February 2022 00:00
Orbit: 1516 x 1684 km, 47.2° (Epoch: 22 January)

Date Brightness Start Highest point End Pass type
(mag) Time Alt. Az. Time Alt. Az. Time Alt. Az.
22 Jan 9.3 17:16:22 10° SW 17:25:35 58° SE 17:34:36 10° ENE visible
22 Jan 8.9 19:20:56 10° W 19:30:20 81° NNW 19:33:36 46° ENE visible
22 Jan 9.8 21:26:23 10° WNW 21:31:48 41° WNW 21:31:48 41° WNW visible
23 Jan 8.9 18:57:58 10° WSW 19:07:25 82° NNW 19:12:00 35° ENE visible
23 Jan 9.4 21:03:27 10° WNW 21:10:12 53° WNW 21:10:12 53° WNW visible
24 Jan 8.9 18:35:01 10° WSW 18:44:29 83° NNW 18:50:24 26° ENE visible
24 Jan 9.0 20:40:30 10° WNW 20:48:36 69° NW 20:48:36 69° NW visible
24 Jan 11.0 22:45:37 10° WNW 22:46:48 15° WNW 22:46:48 15° WNW visible
25 Jan 9.0 18:12:03 10° WSW 18:21:33 85° NNW 18:28:48 19° ENE visible
25 Jan 8.8 20:17:33 10° WNW 20:26:56 78° N 20:27:00 78° NNE visible
25 Jan 10.7 22:22:41 10° WNW 22:25:12 21° WNW 22:25:12 21° WNW visible
26 Jan 9.0 17:49:06 10° WSW 17:58:38 87° NNW 18:07:12 13° ENE visible
26 Jan 8.8 19:54:36 10° W 20:04:00 77° N 20:05:24 66° ENE visible
26 Jan 10.3 21:59:46 10° WNW 22:03:36 28° WNW 22:03:36 28° WNW visible
27 Jan 9.1 17:26:10 10° WSW 17:35:43 88° NNW 17:45:02 10° ENE visible
27 Jan 8.9 19:31:39 10° W 19:41:03 76° N 19:43:48 51° ENE visible
27 Jan 9.9 21:36:50 10° WNW 21:42:01 38° W 21:42:01 38° W visible
28 Jan 8.9 19:08:42 10° W 19:18:07 76° N 19:22:14 38° E visible
28 Jan 9.5 21:13:55 10° WNW 21:20:27 50° W 21:20:27 50° W visible
29 Jan 9.0 18:45:44 10° W 18:55:11 76° N 19:00:41 28° E visible
29 Jan 9.1 20:51:00 10° WNW 20:58:54 66° W 20:58:54 66° W visible
29 Jan 11.1 22:56:31 10° WNW 22:57:06 12° W 22:57:06 12° W visible
30 Jan 9.0 18:22:46 10° W 18:32:14 75° N 18:39:10 20° E visible
30 Jan 8.8 20:28:04 10° WNW 20:37:23 78° SSW 20:37:23 78° SSW visible
30 Jan 10.8 22:33:31 10° WNW 22:35:36 17° W 22:35:36 17° W visible
31 Jan 9.0 17:59:47 10° W 18:09:18 75° N 18:17:40 14° E visible
31 Jan 8.8 20:05:08 10° WNW 20:14:29 81° SSW 20:15:53 67° SE visible
31 Jan 10.5 22:10:31 10° WNW 22:14:06 23° W 22:14:06 23° W visible
